Flag for U.S.A. Weather past 2 weeks in Costa Mesa, California, U.S.A.

Now
63 °F

Overcast.


Feels Like: 63 °F
Forecast: 58 / 65 °F
Wind: 12 mph from South

Location: John Wayne Airport-Orange County Airport


UV Index: 0 (Low)

Visibility: 9 mi


Pressure: 29.91 "Hg

Humidity: 70%

Dew point: 53 °F

Location of Costa MesaLocation

Historic Weather in Costa Mesa

°F

Costa Mesa temperature yesterday

Maximum temperature yesterday: 68 °F (at 12:53 PM)
Minimum temperature yesterday: 59 °F (at 12:53 AM)
Average temperature yesterday: 63 °F

Past Weeks' High & Low Weather Summary

 TemperatureHumidityPressure
High88 °F (Apr 8, 1:53 PM)94% (Apr 10, 3:03 AM)30.14 "Hg (Apr 10, 3:03 AM)
Low50 °F (Apr 3, 5:53 AM)16% (Apr 8, 3:53 PM)29.79 "Hg (Apr 16, 5:53 PM)
Average64 °F60%29.97 "Hg
* Reported Apr 2 7:53 PM — Apr 17 7:53 PM, Costa Mesa, Weather by CustomWeather, © 2014

Note: Actual official high and low records may vary slightly from our data, if they occured in-between our weather recording intervals... More about our weather records

Advertising

Historic Weather Conditions — Data for Previous 24 hours

 ConditionsComfort  
Time TempWeatherWind HumidityBarometerVisibility
7:53 PM
Apr 17
63 °FPartly sunny.10 mph70%29.88 "Hg10 mi
6:53 PM63 °FBroken clouds.8 mph70%29.86 "Hg10 mi
5:53 PM64 °FPartly sunny.16 mph68%29.86 "Hg10 mi
4:53 PM65 °FPartly sunny.10 mph63%29.85 "Hg10 mi
3:53 PM65 °FBroken clouds.10 mph66%29.86 "Hg10 mi
2:53 PM67 °FMore clouds than sun.16 mph61%29.88 "Hg9 mi
1:53 PM66 °FBroken clouds.17 mph63%29.89 "Hg9 mi
12:53 PM67 °FBroken clouds.12 mph61%29.89 "Hg9 mi
11:53 AM67 °FBroken clouds.5 mph61%29.90 "Hg9 mi
10:53 AM65 °FOvercast.No wind66%29.91 "Hg9 mi
9:53 AM63 °FOvercast.3 mph68%29.90 "Hg9 mi
8:53 AM61 °FOvercast.No wind72%29.90 "Hg7 mi
7:53 AM61 °FOvercast.5 mph72%29.89 "Hg7 mi
6:53 AM60 °FOvercast.7 mph78%29.88 "Hg8 mi
5:53 AM60 °FOvercast.5 mph78%29.86 "Hg9 mi
4:53 AM60 °FOvercast.7 mph78%29.86 "Hg9 mi
3:53 AM61 °FOvercast.3 mph75%29.85 "Hg8 mi
2:53 AM60 °FOvercast.No wind78%29.85 "Hg9 mi
1:53 AM61 °FOvercast.6 mph75%29.86 "Hg9 mi
12:53 AM61 °FOvercast.6 mph75%29.88 "Hg9 mi
11:53 PM
Apr 16
60 °FPassing clouds.6 mph78%29.87 "Hg9 mi
10:53 PM61 °FMostly cloudy.6 mph78%29.86 "Hg9 mi
9:53 PM62 °FClear.7 mph75%29.85 "Hg9 mi
Weather by CustomWeather, © 2014

See weather overview